Meteo Giornale » Osservazioni meteo Repubblica Ceca » Namest

ore: 04:00 - Osservazioni Meteo Namest
Lat. 49° 10' N Lon. 16° 7' E Alt. 472 metri s.l.m.

molto_nuvoloso Europe/Prague

8 °C

Molto Nuvoloso

Temp. 24 Ore

8 °C

13 °C

Nord/NOvest

9.3 Km/h

Dew point 5 °C

Umidità 81 %

Visibilità  10 Km

Il sole sorge alle ore 06:37

Il sole tramonta alle ore 18:59

Data e Ora Cielo e Fenomeni T °C DP °C Um. % Pres. hPa Vis. km Vento km/h
Oggi h: 04:00 molto_nuvoloso Molto Nuvoloso 8 5 81 1016 10 N/NO 9.3
Oggi h: 03:30 poco_nuvoloso Poco Nuvoloso 8 5 81 1016 10 N/NO 7.4
Oggi h: 03:00 nuvoloso Nuvoloso 8 5 81 1016 10 N/NO 7.4
Oggi h: 02:30 molto_nuvoloso Molto Nuvoloso 9 5 75 1016 10 N 7.4
Oggi h: 02:00 molto_nuvoloso Molto Nuvoloso 9 5 75 1016 10 N 7.4
Oggi h: 01:30 coperto Coperto 10 5 71 1016 10 N 9.3
Oggi h: 01:00 coperto Coperto 10 5 71 1016 10 N/NO 9.3
Oggi h: 00:30 coperto Coperto 10 5 71 1016 10 N 9.3
Oggi h: 00:00 coperto Coperto 10 5 71 1016 10 N 9.3
Ieri h: 23:30 coperto Coperto 10 5 71 1016 10 N 7.4
Ieri h: 23:00 coperto Coperto 10 5 71 1016 10 N 7.4
Ieri h: 21:30 coperto Coperto 11 5 66 1016 10 N/NE 7.4
Ieri h: 20:30 coperto Coperto 11 5 66 1015 10 NE 11.1
Ieri h: 20:00 coperto Coperto 11 5 66 1015 10 NE 16.7
Ieri h: 19:30 coperto Coperto 12 5 62 1015 10 N/NE 11.1
Ieri h: 19:00 molto_nuvoloso Molto Nuvoloso 12 6 66 1015 10 N 9.3
Ieri h: 18:30 molto_nuvoloso Molto Nuvoloso 12 5 62 1014 10 N 11.1
Ieri h: 18:00 molto_nuvoloso Molto Nuvoloso 13 5 58 1015 10 N 9.3
Ieri h: 17:30 molto_nuvoloso Molto Nuvoloso 13 5 58 1015 10 N/NE 13
Ieri h: 17:00 molto_nuvoloso Molto Nuvoloso 13 6 62 1015 10 N 11.1
Ieri h: 16:30 coperto Coperto 13 6 62 1014 10 N/NE 11.1
Ieri h: 16:00 coperto Coperto 13 6 62 1014 10 N/NE 13
Ieri h: 15:30 coperto Coperto 13 6 62 1014 10 N/NE 11.1
Ieri h: 14:30 coperto Coperto 13 7 66 1015 10 N 7.4
Ieri h: 14:00 coperto Coperto 13 7 66 1015 10 N 7.4
Ieri h: 13:30 coperto Coperto 12 6 66 1015 10 N 5.5
Ieri h: 13:00 coperto Coperto 12 6 66 1015 10 N 3.7
Ieri h: 12:30 coperto Coperto 12 6 66 1016 10 NE 9.3
Ieri h: 11:30 molto_nuvoloso Molto Nuvoloso 12 6 66 1016 10 N/NE 11.1
Ieri h: 11:00 molto_nuvoloso Molto Nuvoloso 11 6 71 1016 10 NE 11.1
Ieri h: 10:00 coperto Coperto 11 7 76 1015 10 N 9.3
Ieri h: 09:30 coperto Coperto 11 8 81 1015 10 N 5.5
Ieri h: 09:00 coperto Coperto 11 8 81 1015 10 N 9.3
Ieri h: 08:30 coperto Coperto 11 8 81 1015 10 N 7.4
Ieri h: 08:00 coperto Coperto 11 8 81 1015 10 N/NO 7.4
Ieri h: 07:30 coperto Coperto 11 8 81 1015 10 N/NO 11.1
Ieri h: 07:00 coperto Coperto 11 8 81 1015 10 N/NO 9.3
Ieri h: 06:30 coperto Coperto 11 8 81 1014 10 N/NO 9.3
Ieri h: 06:00 coperto Coperto 11 9 87 1014 10 N/NO 9.3
Ieri h: 05:30 coperto Coperto 11 9 87 1014 10 N/NO 9.3
Ieri h: 05:00 coperto Coperto 11 9 87 1014 10 N/NO 9.3